Data supplied by UK-AIR on 20/3/2020
All Data GMT hour ending 
Status: R =Ratified P=Provisional,P*=As supplied
,,Chepstow A48,,,,,,,,,,,,,,,,,,,,,,,
Date,time,"PM<sub>10</sub> particulate matter (Hourly measured)",status,unit,"Nitric oxide",status,unit,"Nitrogen dioxide",status,unit,"Nitrogen oxides as nitrogen dioxide",status,unit,"PM<sub>2.5</sub> particulate matter (Hourly measured)",status,unit
 
01-01-2019,01:00,29.952,R,ugm-3 (Ref.eq),14.05963,R,ugm-3,37.36775,R,ugm-3,58.92555,R,ugm-3,18.000,R,ugm-3 (BAM)
01-01-2019,02:00,21.256,R,ugm-3 (Ref.eq),,,,,,,,,,8.000,R,ugm-3 (BAM)
01-01-2019,03:00,22.223,R,ugm-3 (Ref.eq),24.78519,R,ugm-3,44.97587,R,ugm-3,82.97930,R,ugm-3,7.000,R,ugm-3 (BAM)
01-01-2019,04:00,21.256,R,ugm-3 (Ref.eq),12.13830,R,ugm-3,28.34834,R,ugm-3,46.96014,R,ugm-3,7.000,R,ugm-3 (BAM)
01-01-2019,05:00,12.561,R,ugm-3 (Ref.eq),7.66273,R,ugm-3,17.75440,R,ugm-3,29.50375,R,ugm-3,5.000,R,ugm-3 (BAM)
01-01-2019,06:00,14.493,R,ugm-3 (Ref.eq),8.81553,R,ugm-3,19.85917,R,ugm-3,33.37612,R,ugm-3,3.000,R,ugm-3 (BAM)
01-01-2019,07:00,13.527,R,ugm-3 (Ref.eq),25.22596,R,ugm-3,35.38744,R,ugm-3,74.06671,R,ugm-3,5.000,R,ugm-3 (BAM)
01-01-2019,08:00,13.527,R,ugm-3 (Ref.eq),17.39371,R,ugm-3,34.98056,R,ugm-3,61.65055,R,ugm-3,8.000,R,ugm-3 (BAM)
01-01-2019,09:00,16.425,R,ugm-3 (Ref.eq),22.37787,R,ugm-3,40.79937,R,ugm-3,75.11163,R,ugm-3,6.000,R,ugm-3 (BAM)
01-01-2019,10:00,18.358,R,ugm-3 (Ref.eq),29.70154,R,ugm-3,44.32178,R,ugm-3,89.86351,R,ugm-3,7.000,R,ugm-3 (BAM)
01-01-2019,11:00,18.358,R,ugm-3 (Ref.eq),37.43207,R,ugm-3,49.80191,R,ugm-3,107.19696,R,ugm-3,6.000,R,ugm-3 (BAM)
01-01-2019,12:00,13.527,R,ugm-3 (Ref.eq),48.96007,R,ugm-3,65.25615,R,ugm-3,140.32721,R,ugm-3,8.000,R,ugm-3 (BAM)
01-01-2019,13:00,18.358,R,ugm-3 (Ref.eq),40.31407,R,ugm-3,60.81091,R,ugm-3,122.62496,R,ugm-3,8.000,R,ugm-3 (BAM)
01-01-2019,14:00,10.628,R,ugm-3 (Ref.eq),53.84251,R,ugm-3,66.31364,R,ugm-3,148.87101,R,ugm-3,10.000,R,ugm-3 (BAM)
01-01-2019,15:00,12.561,R,ugm-3 (Ref.eq),47.06134,R,ugm-3,63.00434,R,ugm-3,135.16406,R,ugm-3,6.000,R,ugm-3 (BAM)
01-01-2019,16:00,7.730,R,ugm-3 (Ref.eq),28.04015,R,ugm-3,45.76282,R,ugm-3,88.75712,R,ugm-3,4.000,R,ugm-3 (BAM)
01-01-2019,17:00,10.628,R,ugm-3 (Ref.eq),52.38456,R,ugm-3,72.11417,R,ugm-3,152.43604,R,ugm-3,5.000,R,ugm-3 (BAM)
01-01-2019,18:00,12.561,R,ugm-3 (Ref.eq),15.83404,R,ugm-3,36.20417,R,ugm-3,60.48269,R,ugm-3,5.000,R,ugm-3 (BAM)
01-01-2019,19:00,21.256,R,ugm-3 (Ref.eq),6.91680,R,ugm-3,18.03762,R,ugm-3,28.64322,R,ugm-3,6.000,R,ugm-3 (BAM)
01-01-2019,20:00,19.324,R,ugm-3 (Ref.eq),5.05197,R,ugm-3,11.86145,R,ugm-3,19.60770,R,ugm-3,10.000,R,ugm-3 (BAM)
01-01-2019,21:00,19.324,R,ugm-3 (Ref.eq),4.61120,R,ugm-3,13.02903,R,ugm-3,20.09943,R,ugm-3,7.000,R,ugm-3 (BAM)
01-01-2019,22:00,23.189,R,ugm-3 (Ref.eq),4.50948,R,ugm-3,12.75473,R,ugm-3,19.66917,R,ugm-3,8.000,R,ugm-3 (BAM)
01-01-2019,23:00,22.223,R,ugm-3 (Ref.eq),3.69574,R,ugm-3,10.43741,R,ugm-3,16.10413,R,ugm-3,10.000,R,ugm-3 (BAM)
01-01-2019,24:00,16.425,R,ugm-3 (Ref.eq),2.23779,R,ugm-3,13.47197,R,ugm-3,16.90319,R,ugm-3,12.000,R,ugm-3 (BAM)
02-01-2019,01:00,15.459,R,ugm-3 (Ref.eq),2.80387,R,ugm-3,12.94000,R,ugm-3,17.23921,R,ugm-3,11.000,R,ugm-3 (BAM)
02-01-2019,02:00,15.459,R,ugm-3 (Ref.eq),,,,,,,,,,11.000,R,ugm-3 (BAM)
02-01-2019,03:00,8.696,R,ugm-3 (Ref.eq),1.69589,R,ugm-3,11.62202,R,ugm-3,14.22235,R,ugm-3,8.000,R,ugm-3 (BAM)
02-01-2019,04:00,13.527,R,ugm-3 (Ref.eq),1.42455,R,ugm-3,9.88318,R,ugm-3,12.06745,R,ugm-3,9.000,R,ugm-3 (BAM)
02-01-2019,05:00,14.493,R,ugm-3 (Ref.eq),2.84910,R,ugm-3,10.71576,R,ugm-3,15.08431,R,ugm-3,9.000,R,ugm-3 (BAM)
02-01-2019,06:00,11.594,R,ugm-3 (Ref.eq),5.73211,R,ugm-3,12.82148,R,ugm-3,21.61059,R,ugm-3,8.000,R,ugm-3 (BAM)
02-01-2019,07:00,16.425,R,ugm-3 (Ref.eq),10.37885,R,ugm-3,21.08873,R,ugm-3,37.00274,R,ugm-3,9.000,R,ugm-3 (BAM)
02-01-2019,08:00,16.425,R,ugm-3 (Ref.eq),10.07359,R,ugm-3,22.78816,R,ugm-3,38.23412,R,ugm-3,11.000,R,ugm-3 (BAM)
02-01-2019,09:00,12.561,R,ugm-3 (Ref.eq),13.22794,R,ugm-3,25.46292,R,ugm-3,45.74549,R,ugm-3,13.000,R,ugm-3 (BAM)
02-01-2019,10:00,16.425,R,ugm-3 (Ref.eq),29.67808,R,ugm-3,37.36562,R,ugm-3,82.87137,R,ugm-3,9.000,R,ugm-3 (BAM)
02-01-2019,11:00,25.121,R,ugm-3 (Ref.eq),53.59013,R,ugm-3,54.81980,R,ugm-3,136.99019,R,ugm-3,17.000,R,ugm-3 (BAM)
02-01-2019,12:00,86.958,R,ugm-3 (Ref.eq),42.36334,R,ugm-3,54.36378,R,ugm-3,119.31999,R,ugm-3,78.000,R,ugm-3 (BAM)
02-01-2019,13:00,38.648,R,ugm-3 (Ref.eq),39.17506,R,ugm-3,55.92770,R,ugm-3,115.99528,R,ugm-3,17.000,R,ugm-3 (BAM)
02-01-2019,14:00,41.547,R,ugm-3 (Ref.eq),43.38087,R,ugm-3,59.69927,R,ugm-3,126.21568,R,ugm-3,11.000,R,ugm-3 (BAM)
02-01-2019,15:00,33.817,R,ugm-3 (Ref.eq),34.83358,R,ugm-3,57.16650,R,ugm-3,110.57725,R,ugm-3,10.000,R,ugm-3 (BAM)
02-01-2019,16:00,30.918,R,ugm-3 (Ref.eq),33.51079,R,ugm-3,60.42613,R,ugm-3,111.80862,R,ugm-3,8.000,R,ugm-3 (BAM)
02-01-2019,17:00,30.918,R,ugm-3 (Ref.eq),41.14229,R,ugm-3,73.72151,R,ugm-3,136.80548,R,ugm-3,15.000,R,ugm-3 (BAM)
02-01-2019,18:00,32.851,R,ugm-3 (Ref.eq),34.63008,R,ugm-3,72.62442,R,ugm-3,125.72313,R,ugm-3,11.000,R,ugm-3 (BAM)
02-01-2019,19:00,146.862,R,ugm-3 (Ref.eq),34.76575,R,ugm-3,69.58424,R,ugm-3,122.89097,R,ugm-3,20.000,R,ugm-3 (BAM)
02-01-2019,20:00,70.533,R,ugm-3 (Ref.eq),25.16701,R,ugm-3,53.70249,R,ugm-3,92.29137,R,ugm-3,10.000,R,ugm-3 (BAM)
02-01-2019,21:00,38.648,R,ugm-3 (Ref.eq),18.31561,R,ugm-3,50.84743,R,ugm-3,78.93098,R,ugm-3,15.000,R,ugm-3 (BAM)
02-01-2019,22:00,28.020,R,ugm-3 (Ref.eq),12.10866,R,ugm-3,34.32110,R,ugm-3,52.88745,R,ugm-3,10.000,R,ugm-3 (BAM)
02-01-2019,23:00,28.020,R,ugm-3 (Ref.eq),14.92383,R,ugm-3,35.29946,R,ugm-3,58.18235,R,ugm-3,12.000,R,ugm-3 (BAM)
02-01-2019,24:00,18.358,R,ugm-3 (Ref.eq),3.73096,R,ugm-3,16.50555,R,ugm-3,22.22627,R,ugm-3,9.000,R,ugm-3 (BAM)
03-01-2019,01:00,21.256,R,ugm-3 (Ref.eq),1.85483,R,ugm-3,12.36818,R,ugm-3,15.21221,R,ugm-3,9.000,R,ugm-3 (BAM)
03-01-2019,02:00,19.324,R,ugm-3 (Ref.eq),,,,,,,,,,8.000,R,ugm-3 (BAM)
03-01-2019,03:00,60.871,R,ugm-3 (Ref.eq),3.86799,R,ugm-3,19.66267,R,ugm-3,25.59351,R,ugm-3,19.000,R,ugm-3 (BAM)
03-01-2019,04:00,47.344,R,ugm-3 (Ref.eq),5.22518,R,ugm-3,14.68314,R,ugm-3,22.69496,R,ugm-3,11.000,R,ugm-3 (BAM)
03-01-2019,05:00,49.276,R,ugm-3 (Ref.eq),4.61445,R,ugm-3,20.05990,R,ugm-3,27.13528,R,ugm-3,10.000,R,ugm-3 (BAM)
03-01-2019,06:00,53.141,R,ugm-3 (Ref.eq),14.99695,R,ugm-3,37.19600,R,ugm-3,60.19099,R,ugm-3,9.000,R,ugm-3 (BAM)
03-01-2019,07:00,57.972,R,ugm-3 (Ref.eq),38.23882,R,ugm-3,66.37528,R,ugm-3,125.00732,R,ugm-3,15.000,R,ugm-3 (BAM)
03-01-2019,08:00,44.445,R,ugm-3 (Ref.eq),33.82795,R,ugm-3,58.83082,R,ugm-3,110.69962,R,ugm-3,12.000,R,ugm-3 (BAM)
03-01-2019,09:00,42.513,R,ugm-3 (Ref.eq),41.25856,R,ugm-3,69.39229,R,ugm-3,132.65453,R,ugm-3,13.000,R,ugm-3 (BAM)
03-01-2019,10:00,42.513,R,ugm-3 (Ref.eq),50.41959,R,ugm-3,68.54319,R,ugm-3,145.85215,R,ugm-3,12.000,R,ugm-3 (BAM)
03-01-2019,11:00,40.580,R,ugm-3 (Ref.eq),43.12470,R,ugm-3,65.48251,R,ugm-3,131.60613,R,ugm-3,16.000,R,ugm-3 (BAM)
03-01-2019,12:00,30.918,R,ugm-3 (Ref.eq),32.30111,R,ugm-3,55.86823,R,ugm-3,105.39591,R,ugm-3,10.000,R,ugm-3 (BAM)
03-01-2019,13:00,38.648,R,ugm-3 (Ref.eq),37.56022,R,ugm-3,64.33223,R,ugm-3,121.92376,R,ugm-3,17.000,R,ugm-3 (BAM)
03-01-2019,14:00,32.851,R,ugm-3 (Ref.eq),35.96552,R,ugm-3,61.90538,R,ugm-3,117.05175,R,ugm-3,15.000,R,ugm-3 (BAM)
03-01-2019,15:00,36.716,R,ugm-3 (Ref.eq),28.84028,R,ugm-3,56.05606,R,ugm-3,100.27721,R,ugm-3,15.000,R,ugm-3 (BAM)
03-01-2019,16:00,60.871,R,ugm-3 (Ref.eq),35.59230,R,ugm-3,61.12089,R,ugm-3,115.69498,R,ugm-3,37.000,R,ugm-3 (BAM)
03-01-2019,17:00,39.614,R,ugm-3 (Ref.eq),30.70641,R,ugm-3,52.51631,R,ugm-3,99.59883,R,ugm-3,18.000,R,ugm-3 (BAM)
03-01-2019,18:00,41.547,R,ugm-3 (Ref.eq),36.84770,R,ugm-3,58.94928,R,ugm-3,115.44830,R,ugm-3,17.000,R,ugm-3 (BAM)
03-01-2019,19:00,151.693,R,ugm-3 (Ref.eq),21.34181,R,ugm-3,43.00846,R,ugm-3,75.73211,R,ugm-3,17.000,R,ugm-3 (BAM)
03-01-2019,20:00,59.904,R,ugm-3 (Ref.eq),10.28071,R,ugm-3,28.02294,R,ugm-3,43.78648,R,ugm-3,10.000,R,ugm-3 (BAM)
03-01-2019,21:00,38.648,R,ugm-3 (Ref.eq),13.77547,R,ugm-3,32.10006,R,ugm-3,53.22216,R,ugm-3,17.000,R,ugm-3 (BAM)
03-01-2019,22:00,43.479,R,ugm-3 (Ref.eq),15.06481,R,ugm-3,34.93346,R,ugm-3,58.03250,R,ugm-3,18.000,R,ugm-3 (BAM)
03-01-2019,23:00,28.020,R,ugm-3 (Ref.eq),18.35599,R,ugm-3,39.69275,R,ugm-3,67.83821,R,ugm-3,15.000,R,ugm-3 (BAM)
03-01-2019,24:00,23.189,R,ugm-3 (Ref.eq),6.85381,R,ugm-3,38.08780,R,ugm-3,48.59683,R,ugm-3,18.000,R,ugm-3 (BAM)
04-01-2019,01:00,19.324,R,ugm-3 (Ref.eq),1.90073,R,ugm-3,12.89962,R,ugm-3,15.81404,R,ugm-3,14.000,R,ugm-3 (BAM)
04-01-2019,02:00,18.358,R,ugm-3 (Ref.eq),,,,,,,,,,10.000,R,ugm-3 (BAM)
04-01-2019,03:00,22.223,R,ugm-3 (Ref.eq),1.73103,R,ugm-3,11.24485,R,ugm-3,13.89906,R,ugm-3,15.000,R,ugm-3 (BAM)
04-01-2019,04:00,23.189,R,ugm-3 (Ref.eq),6.41498,R,ugm-3,13.02006,R,ugm-3,22.85622,R,ugm-3,13.000,R,ugm-3 (BAM)
04-01-2019,05:00,20.290,R,ugm-3 (Ref.eq),4.92154,R,ugm-3,13.82740,R,ugm-3,21.37366,R,ugm-3,16.000,R,ugm-3 (BAM)
04-01-2019,06:00,24.155,R,ugm-3 (Ref.eq),10.82740,R,ugm-3,22.80977,R,ugm-3,39.41154,R,ugm-3,12.000,R,ugm-3 (BAM)
04-01-2019,07:00,27.054,R,ugm-3 (Ref.eq),34.65445,R,ugm-3,41.06862,R,ugm-3,94.20470,R,ugm-3,13.000,R,ugm-3 (BAM)
04-01-2019,08:00,31.885,R,ugm-3 (Ref.eq),38.48986,R,ugm-3,56.56140,R,ugm-3,115.57836,R,ugm-3,18.000,R,ugm-3 (BAM)
04-01-2019,09:00,49.276,R,ugm-3 (Ref.eq),29.35955,R,ugm-3,55.05584,R,ugm-3,100.07319,R,ugm-3,20.000,R,ugm-3 (BAM)
04-01-2019,10:00,43.479,R,ugm-3 (Ref.eq),34.48474,R,ugm-3,51.08906,R,ugm-3,103.96493,R,ugm-3,21.000,R,ugm-3 (BAM)
04-01-2019,11:00,37.682,R,ugm-3 (Ref.eq),57.02202,R,ugm-3,66.81608,R,ugm-3,154.24862,R,ugm-3,20.000,R,ugm-3 (BAM)
04-01-2019,12:00,53.141,R,ugm-3 (Ref.eq),57.66691,R,ugm-3,67.68046,R,ugm-3,156.10183,R,ugm-3,19.000,R,ugm-3 (BAM)
04-01-2019,13:00,48.310,R,ugm-3 (Ref.eq),63.53882,R,ugm-3,66.52224,R,ugm-3,163.94707,R,ugm-3,17.000,R,ugm-3 (BAM)
04-01-2019,14:00,42.513,R,ugm-3 (Ref.eq),29.97050,R,ugm-3,45.10012,R,ugm-3,91.05425,R,ugm-3,23.000,R,ugm-3 (BAM)
04-01-2019,15:00,49.276,R,ugm-3 (Ref.eq),33.70409,R,ugm-3,53.58330,R,ugm-3,105.26217,R,ugm-3,24.000,R,ugm-3 (BAM)
04-01-2019,16:00,46.378,R,ugm-3 (Ref.eq),45.24426,R,ugm-3,66.96072,R,ugm-3,136.33428,R,ugm-3,24.000,R,ugm-3 (BAM)
04-01-2019,17:00,34.783,R,ugm-3 (Ref.eq),31.12452,R,ugm-3,60.99790,R,ugm-3,108.72149,R,ugm-3,27.000,R,ugm-3 (BAM)
04-01-2019,18:00,36.716,R,ugm-3 (Ref.eq),37.98074,R,ugm-3,67.65823,R,ugm-3,125.89455,R,ugm-3,30.000,R,ugm-3 (BAM)
04-01-2019,19:00,32.851,R,ugm-3 (Ref.eq),51.35376,R,ugm-3,78.10178,R,ugm-3,156.84311,R,ugm-3,26.000,R,ugm-3 (BAM)
04-01-2019,20:00,28.020,R,ugm-3 (Ref.eq),62.96181,R,ugm-3,80.93539,R,ugm-3,177.47548,R,ugm-3,18.000,R,ugm-3 (BAM)
04-01-2019,21:00,25.121,R,ugm-3 (Ref.eq),27.66247,R,ugm-3,52.34548,R,ugm-3,94.76067,R,ugm-3,22.000,R,ugm-3 (BAM)
04-01-2019,22:00,20.290,R,ugm-3 (Ref.eq),35.06175,R,ugm-3,62.00308,R,ugm-3,115.76368,R,ugm-3,14.000,R,ugm-3 (BAM)
04-01-2019,23:00,15.459,R,ugm-3 (Ref.eq),12.01535,R,ugm-3,50.14538,R,ugm-3,68.56867,R,ugm-3,14.000,R,ugm-3 (BAM)
04-01-2019,24:00,14.493,R,ugm-3 (Ref.eq),18.49821,R,ugm-3,38.10484,R,ugm-3,66.46837,R,ugm-3,13.000,R,ugm-3 (BAM)
05-01-2019,01:00,18.358,R,ugm-3 (Ref.eq),12.26857,R,ugm-3,30.02928,R,ugm-3,48.84083,R,ugm-3,11.000,R,ugm-3 (BAM)
05-01-2019,02:00,14.493,R,ugm-3 (Ref.eq),,,,,,,,,,14.000,R,ugm-3 (BAM)
05-01-2019,03:00,25.121,R,ugm-3 (Ref.eq),8.86189,R,ugm-3,22.11443,R,ugm-3,35.70248,R,ugm-3,15.000,R,ugm-3 (BAM)
05-01-2019,04:00,22.223,R,ugm-3 (Ref.eq),6.72282,R,ugm-3,20.75361,R,ugm-3,31.06178,R,ugm-3,13.000,R,ugm-3 (BAM)
05-01-2019,05:00,22.223,R,ugm-3 (Ref.eq),10.11818,R,ugm-3,24.89074,R,ugm-3,40.40506,R,ugm-3,8.000,R,ugm-3 (BAM)
05-01-2019,06:00,17.392,R,ugm-3 (Ref.eq),37.28107,R,ugm-3,48.64454,R,ugm-3,105.80805,R,ugm-3,13.000,R,ugm-3 (BAM)
05-01-2019,07:00,23.189,R,ugm-3 (Ref.eq),32.52756,R,ugm-3,48.94115,R,ugm-3,98.81606,R,ugm-3,13.000,R,ugm-3 (BAM)
05-01-2019,08:00,13.527,R,ugm-3 (Ref.eq),34.42897,R,ugm-3,58.21529,R,ugm-3,111.00564,R,ugm-3,11.000,R,ugm-3 (BAM)
05-01-2019,09:00,25.121,R,ugm-3 (Ref.eq),49.80995,R,ugm-3,79.18220,R,ugm-3,155.55640,R,ugm-3,14.000,R,ugm-3 (BAM)
05-01-2019,10:00,19.324,R,ugm-3 (Ref.eq),31.23733,R,ugm-3,56.85959,R,ugm-3,104.75616,R,ugm-3,12.000,R,ugm-3 (BAM)
05-01-2019,11:00,28.986,R,ugm-3 (Ref.eq),114.72926,R,ugm-3,109.58035,R,ugm-3,285.49611,R,ugm-3,25.000,R,ugm-3 (BAM)
05-01-2019,12:00,30.918,R,ugm-3 (Ref.eq),92.38779,R,ugm-3,106.95868,R,ugm-3,248.61798,R,ugm-3,21.000,R,ugm-3 (BAM)
05-01-2019,13:00,31.885,R,ugm-3 (Ref.eq),76.73517,R,ugm-3,99.34036,R,ugm-3,216.99932,R,ugm-3,22.000,R,ugm-3 (BAM)
05-01-2019,14:00,28.986,R,ugm-3 (Ref.eq),69.16351,R,ugm-3,94.73855,R,ugm-3,200.78779,R,ugm-3,22.000,R,ugm-3 (BAM)
05-01-2019,15:00,30.918,R,ugm-3 (Ref.eq),82.91473,R,ugm-3,102.73539,R,ugm-3,229.86953,R,ugm-3,19.000,R,ugm-3 (BAM)
05-01-2019,16:00,35.749,R,ugm-3 (Ref.eq),64.37605,R,ugm-3,96.20099,R,ugm-3,194.90957,R,ugm-3,24.000,R,ugm-3 (BAM)
05-01-2019,17:00,36.716,R,ugm-3 (Ref.eq),70.01235,R,ugm-3,98.13959,R,ugm-3,205.49037,R,ugm-3,27.000,R,ugm-3 (BAM)
05-01-2019,18:00,40.580,R,ugm-3 (Ref.eq),48.21413,R,ugm-3,77.73090,R,ugm-3,151.65820,R,ugm-3,34.000,R,ugm-3 (BAM)
05-01-2019,19:00,49.276,R,ugm-3 (Ref.eq),58.94348,R,ugm-3,81.32731,R,ugm-3,171.70604,R,ugm-3,35.000,R,ugm-3 (BAM)
05-01-2019,20:00,48.310,R,ugm-3 (Ref.eq),58.36626,R,ugm-3,87.47182,R,ugm-3,176.96551,R,ugm-3,36.000,R,ugm-3 (BAM)
05-01-2019,21:00,46.378,R,ugm-3 (Ref.eq),53.37508,R,ugm-3,84.66781,R,ugm-3,166.50846,R,ugm-3,34.000,R,ugm-3 (BAM)
05-01-2019,22:00,48.310,R,ugm-3 (Ref.eq),58.02673,R,ugm-3,86.44553,R,ugm-3,175.41861,R,ugm-3,36.000,R,ugm-3 (BAM)
05-01-2019,23:00,50.242,R,ugm-3 (Ref.eq),44.17365,R,ugm-3,72.54102,R,ugm-3,140.27301,R,ugm-3,35.000,R,ugm-3 (BAM)
05-01-2019,24:00,41.547,R,ugm-3 (Ref.eq),47.33134,R,ugm-3,65.71927,R,ugm-3,138.29298,R,ugm-3,35.000,R,ugm-3 (BAM)
06-01-2019,01:00,40.580,R,ugm-3 (Ref.eq),26.71957,R,ugm-3,58.93996,R,ugm-3,99.90939,R,ugm-3,33.000,R,ugm-3 (BAM)
06-01-2019,02:00,33.817,R,ugm-3 (Ref.eq),,,,,,,,,,28.000,R,ugm-3 (BAM)
06-01-2019,03:00,34.783,R,ugm-3 (Ref.eq),19.12261,R,ugm-3,52.42876,R,ugm-3,81.74968,R,ugm-3,26.000,R,ugm-3 (BAM)
06-01-2019,04:00,34.783,R,ugm-3 (Ref.eq),9.13673,R,ugm-3,31.60673,R,ugm-3,45.61620,R,ugm-3,27.000,R,ugm-3 (BAM)
06-01-2019,05:00,28.020,R,ugm-3 (Ref.eq),12.73708,R,ugm-3,33.58568,R,ugm-3,53.11560,R,ugm-3,23.000,R,ugm-3 (BAM)
06-01-2019,06:00,32.851,R,ugm-3 (Ref.eq),12.49932,R,ugm-3,36.36740,R,ugm-3,55.53276,R,ugm-3,22.000,R,ugm-3 (BAM)
06-01-2019,07:00,32.851,R,ugm-3 (Ref.eq),43.71367,R,ugm-3,46.51798,R,ugm-3,113.54466,R,ugm-3,22.000,R,ugm-3 (BAM)
06-01-2019,08:00,22.223,R,ugm-3 (Ref.eq),23.67399,R,ugm-3,49.72659,R,ugm-3,86.02620,R,ugm-3,8.000,R,ugm-3 (BAM)
06-01-2019,09:00,22.223,R,ugm-3 (Ref.eq),31.92762,R,ugm-3,59.19753,R,ugm-3,108.15253,R,ugm-3,8.000,R,ugm-3 (BAM)
06-01-2019,10:00,30.918,R,ugm-3 (Ref.eq),64.97610,R,ugm-3,80.97680,R,ugm-3,180.60543,R,ugm-3,17.000,R,ugm-3 (BAM)
06-01-2019,11:00,28.986,R,ugm-3 (Ref.eq),98.02458,R,ugm-3,107.65237,R,ugm-3,257.95464,R,ugm-3,16.000,R,ugm-3 (BAM)
06-01-2019,12:00,27.054,R,ugm-3 (Ref.eq),95.95269,R,ugm-3,113.06047,R,ugm-3,260.18586,R,ugm-3,15.000,R,ugm-3 (BAM)
06-01-2019,13:00,33.817,R,ugm-3 (Ref.eq),111.50891,R,ugm-3,116.97430,R,ugm-3,287.95224,R,ugm-3,13.000,R,ugm-3 (BAM)
06-01-2019,14:00,30.918,R,ugm-3 (Ref.eq),61.47765,R,ugm-3,88.01444,R,ugm-3,182.27885,R,ugm-3,19.000,R,ugm-3 (BAM)
06-01-2019,15:00,39.614,R,ugm-3 (Ref.eq),73.16180,R,ugm-3,98.48516,R,ugm-3,210.66502,R,ugm-3,20.000,R,ugm-3 (BAM)
06-01-2019,16:00,35.749,R,ugm-3 (Ref.eq),85.49129,R,ugm-3,98.79354,R,ugm-3,229.87836,R,ugm-3,24.000,R,ugm-3 (BAM)
06-01-2019,17:00,33.817,R,ugm-3 (Ref.eq),64.84024,R,ugm-3,91.53553,R,ugm-3,190.95585,R,ugm-3,19.000,R,ugm-3 (BAM)
06-01-2019,18:00,40.580,R,ugm-3 (Ref.eq),81.44939,R,ugm-3,111.12691,R,ugm-3,236.01424,R,ugm-3,23.000,R,ugm-3 (BAM)
06-01-2019,19:00,28.986,R,ugm-3 (Ref.eq),43.67970,R,ugm-3,72.29115,R,ugm-3,139.26575,R,ugm-3,15.000,R,ugm-3 (BAM)
06-01-2019,20:00,30.918,R,ugm-3 (Ref.eq),36.88659,R,ugm-3,73.10043,R,ugm-3,129.65908,R,ugm-3,16.000,R,ugm-3 (BAM)
06-01-2019,21:00,38.648,R,ugm-3 (Ref.eq),49.75953,R,ugm-3,77.03799,R,ugm-3,153.33488,R,ugm-3,17.000,R,ugm-3 (BAM)
06-01-2019,22:00,25.121,R,ugm-3 (Ref.eq),22.07761,R,ugm-3,50.43894,R,ugm-3,84.29080,R,ugm-3,12.000,R,ugm-3 (BAM)
06-01-2019,23:00,25.121,R,ugm-3 (Ref.eq),16.91485,R,ugm-3,44.96770,R,ugm-3,70.90344,R,ugm-3,12.000,R,ugm-3 (BAM)
06-01-2019,24:00,28.986,R,ugm-3 (Ref.eq),10.22363,R,ugm-3,41.40621,R,ugm-3,57.08223,R,ugm-3,12.000,R,ugm-3 (BAM)
07-01-2019,01:00,30.918,R,ugm-3 (Ref.eq),8.74354,R,ugm-3,44.03905,R,ugm-3,57.44562,R,ugm-3,,,
07-01-2019,02:00,28.986,R,ugm-3 (Ref.eq),,,,,,,,,,18.000,R,ugm-3 (BAM)
07-01-2019,03:00,30.918,R,ugm-3 (Ref.eq),6.42175,R,ugm-3,27.27790,R,ugm-3,37.12444,R,ugm-3,15.000,R,ugm-3 (BAM)
07-01-2019,04:00,27.054,R,ugm-3 (Ref.eq),6.82948,R,ugm-3,25.59735,R,ugm-3,36.06906,R,ugm-3,15.000,R,ugm-3 (BAM)
07-01-2019,05:00,28.020,R,ugm-3 (Ref.eq),22.93481,R,ugm-3,37.22024,R,ugm-3,72.38645,R,ugm-3,12.000,R,ugm-3 (BAM)
07-01-2019,06:00,26.087,R,ugm-3 (Ref.eq),32.44850,R,ugm-3,53.17663,R,ugm-3,102.93031,R,ugm-3,11.000,R,ugm-3 (BAM)
07-01-2019,07:00,28.986,R,ugm-3 (Ref.eq),50.49055,R,ugm-3,71.76289,R,ugm-3,149.18066,R,ugm-3,12.000,R,ugm-3 (BAM)
07-01-2019,08:00,28.986,R,ugm-3 (Ref.eq),75.49798,R,ugm-3,94.69265,R,ugm-3,210.45461,R,ugm-3,13.000,R,ugm-3 (BAM)
07-01-2019,09:00,25.121,R,ugm-3 (Ref.eq),77.36674,R,ugm-3,98.65617,R,ugm-3,217.28352,R,ugm-3,11.000,R,ugm-3 (BAM)
07-01-2019,10:00,25.121,R,ugm-3 (Ref.eq),52.97091,R,ugm-3,76.96148,R,ugm-3,158.18240,R,ugm-3,14.000,R,ugm-3 (BAM)
07-01-2019,11:00,21.256,R,ugm-3 (Ref.eq),47.19473,R,ugm-3,71.10495,R,ugm-3,143.46920,R,ugm-3,12.000,R,ugm-3 (BAM)
07-01-2019,12:00,18.358,R,ugm-3 (Ref.eq),51.71374,R,ugm-3,71.56355,R,ugm-3,150.85684,R,ugm-3,9.000,R,ugm-3 (BAM)
07-01-2019,13:00,15.459,R,ugm-3 (Ref.eq),59.66447,R,ugm-3,78.24522,R,ugm-3,169.72947,R,ugm-3,9.000,R,ugm-3 (BAM)
07-01-2019,14:00,18.358,R,ugm-3 (Ref.eq),44.57847,R,ugm-3,61.52077,R,ugm-3,129.87346,R,ugm-3,12.000,R,ugm-3 (BAM)
07-01-2019,15:00,28.020,R,ugm-3 (Ref.eq),53.58250,R,ugm-3,70.99515,R,ugm-3,153.15384,R,ugm-3,11.000,R,ugm-3 (BAM)
07-01-2019,16:00,21.256,R,ugm-3 (Ref.eq),55.21342,R,ugm-3,76.44081,R,ugm-3,161.10021,R,ugm-3,9.000,R,ugm-3 (BAM)
07-01-2019,17:00,19.324,R,ugm-3 (Ref.eq),65.03292,R,ugm-3,80.25709,R,ugm-3,179.97284,R,ugm-3,7.000,R,ugm-3 (BAM)
07-01-2019,18:00,26.087,R,ugm-3 (Ref.eq),52.66511,R,ugm-3,78.05117,R,ugm-3,158.80321,R,ugm-3,12.000,R,ugm-3 (BAM)
07-01-2019,19:00,16.425,R,ugm-3 (Ref.eq),44.64642,R,ugm-3,73.70861,R,ugm-3,142.16550,R,ugm-3,9.000,R,ugm-3 (BAM)
07-01-2019,20:00,11.594,R,ugm-3 (Ref.eq),37.17137,R,ugm-3,53.57096,R,ugm-3,110.56627,R,ugm-3,6.000,R,ugm-3 (BAM)
07-01-2019,21:00,14.493,R,ugm-3 (Ref.eq),23.47845,R,ugm-3,47.74750,R,ugm-3,83.74728,R,ugm-3,6.000,R,ugm-3 (BAM)
07-01-2019,22:00,14.493,R,ugm-3 (Ref.eq),17.49841,R,ugm-3,41.45859,R,ugm-3,68.28911,R,ugm-3,10.000,R,ugm-3 (BAM)
07-01-2019,23:00,22.223,R,ugm-3 (Ref.eq),9.30983,R,ugm-3,27.75396,R,ugm-3,42.02884,R,ugm-3,10.000,R,ugm-3 (BAM)
07-01-2019,24:00,8.696,R,ugm-3 (Ref.eq),4.48503,R,ugm-3,12.55441,R,ugm-3,19.43135,R,ugm-3,9.000,R,ugm-3 (BAM)
08-01-2019,01:00,16.425,R,ugm-3 (Ref.eq),4.71320,R,ugm-3,12.42317,R,ugm-3,19.64998,R,ugm-3,8.000,R,ugm-3 (BAM)
08-01-2019,02:00,16.425,R,ugm-3 (Ref.eq),,,,,,,,,,7.000,R,ugm-3 (BAM)
08-01-2019,03:00,16.425,R,ugm-3 (Ref.eq),8.83725,R,ugm-3,20.77502,R,ugm-3,34.32528,R,ugm-3,7.000,R,ugm-3 (BAM)
08-01-2019,04:00,16.425,R,ugm-3 (Ref.eq),8.87124,R,ugm-3,22.65059,R,ugm-3,36.25297,R,ugm-3,6.000,R,ugm-3 (BAM)
08-01-2019,05:00,8.696,R,ugm-3 (Ref.eq),16.21296,R,ugm-3,30.48378,R,ugm-3,55.34330,R,ugm-3,7.000,R,ugm-3 (BAM)
08-01-2019,06:00,18.358,R,ugm-3 (Ref.eq),51.32404,R,ugm-3,58.79192,R,ugm-3,137.48768,R,ugm-3,7.000,R,ugm-3 (BAM)
08-01-2019,07:00,18.358,R,ugm-3 (Ref.eq),119.94869,R,ugm-3,116.42746,R,ugm-3,300.34622,R,ugm-3,7.000,R,ugm-3 (BAM)
08-01-2019,08:00,19.324,R,ugm-3 (Ref.eq),210.83642,R,ugm-3,149.19210,R,ugm-3,472.47010,R,ugm-3,9.000,R,ugm-3 (BAM)
08-01-2019,09:00,20.290,R,ugm-3 (Ref.eq),137.41925,R,ugm-3,127.26064,R,ugm-3,337.96722,R,ugm-3,7.000,R,ugm-3 (BAM)
08-01-2019,10:00,26.087,R,ugm-3 (Ref.eq),189.52505,R,ugm-3,140.51706,R,ugm-3,431.11808,R,ugm-3,13.000,R,ugm-3 (BAM)
08-01-2019,11:00,25.121,R,ugm-3 (Ref.eq),103.05594,R,ugm-3,115.03076,R,ugm-3,273.04767,R,ugm-3,10.000,R,ugm-3 (BAM)
08-01-2019,12:00,59.904,R,ugm-3 (Ref.eq),38.81593,R,ugm-3,55.77125,R,ugm-3,115.28818,R,ugm-3,8.000,R,ugm-3 (BAM)
08-01-2019,13:00,68.600,R,ugm-3 (Ref.eq),28.27920,R,ugm-3,40.15158,R,ugm-3,83.51242,R,ugm-3,8.000,R,ugm-3 (BAM)
08-01-2019,14:00,64.735,R,ugm-3 (Ref.eq),60.56916,R,ugm-3,57.67479,R,ugm-3,150.54621,R,ugm-3,10.000,R,ugm-3 (BAM)
08-01-2019,15:00,58.938,R,ugm-3 (Ref.eq),49.65855,R,ugm-3,61.84309,R,ugm-3,137.98515,R,ugm-3,10.000,R,ugm-3 (BAM)
08-01-2019,16:00,59.904,R,ugm-3 (Ref.eq),87.18288,R,ugm-3,81.47629,R,ugm-3,215.15485,R,ugm-3,17.000,R,ugm-3 (BAM)
08-01-2019,17:00,65.702,R,ugm-3 (Ref.eq),131.33515,R,ugm-3,127.69724,R,ugm-3,329.07499,R,ugm-3,16.000,R,ugm-3 (BAM)
08-01-2019,18:00,47.344,R,ugm-3 (Ref.eq),92.07736,R,ugm-3,116.81595,R,ugm-3,257.99927,R,ugm-3,16.000,R,ugm-3 (BAM)
08-01-2019,19:00,42.513,R,ugm-3 (Ref.eq),78.71951,R,ugm-3,113.23269,R,ugm-3,233.93426,R,ugm-3,13.000,R,ugm-3 (BAM)
08-01-2019,20:00,31.885,R,ugm-3 (Ref.eq),45.81775,R,ugm-3,83.96213,R,ugm-3,154.21503,R,ugm-3,15.000,R,ugm-3 (BAM)
08-01-2019,21:00,31.885,R,ugm-3 (Ref.eq),39.32577,R,ugm-3,70.72193,R,ugm-3,131.02060,R,ugm-3,12.000,R,ugm-3 (BAM)
08-01-2019,22:00,28.020,R,ugm-3 (Ref.eq),36.67459,R,ugm-3,64.71328,R,ugm-3,120.94687,R,ugm-3,11.000,R,ugm-3 (BAM)
08-01-2019,23:00,27.054,R,ugm-3 (Ref.eq),23.35074,R,ugm-3,51.25291,R,ugm-3,87.05687,R,ugm-3,12.000,R,ugm-3 (BAM)
08-01-2019,24:00,20.290,R,ugm-3 (Ref.eq),10.50273,R,ugm-3,34.69994,R,ugm-3,50.80390,R,ugm-3,10.000,R,ugm-3 (BAM)
09-01-2019,01:00,21.256,R,ugm-3 (Ref.eq),4.71486,R,ugm-3,22.83401,R,ugm-3,30.06336,R,ugm-3,10.000,R,ugm-3 (BAM)
09-01-2019,02:00,20.290,R,ugm-3 (Ref.eq),,,,,,,,,,6.000,R,ugm-3 (BAM)
09-01-2019,03:00,16.425,R,ugm-3 (Ref.eq),7.10629,R,ugm-3,23.48570,R,ugm-3,34.38185,R,ugm-3,6.000,R,ugm-3 (BAM)
09-01-2019,04:00,18.358,R,ugm-3 (Ref.eq),5.88224,R,ugm-3,16.58023,R,ugm-3,25.59953,R,ugm-3,9.000,R,ugm-3 (BAM)
09-01-2019,05:00,19.324,R,ugm-3 (Ref.eq),8.73835,R,ugm-3,20.42266,R,ugm-3,33.82128,R,ugm-3,6.000,R,ugm-3 (BAM)
09-01-2019,06:00,19.324,R,ugm-3 (Ref.eq),10.37042,R,ugm-3,21.22135,R,ugm-3,37.12243,R,ugm-3,6.000,R,ugm-3 (BAM)
09-01-2019,07:00,21.256,R,ugm-3 (Ref.eq),18.66675,R,ugm-3,35.53259,R,ugm-3,64.15454,R,ugm-3,7.000,R,ugm-3 (BAM)
09-01-2019,08:00,15.459,R,ugm-3 (Ref.eq),14.65459,R,ugm-3,32.03016,R,ugm-3,54.50021,R,ugm-3,6.000,R,ugm-3 (BAM)
09-01-2019,09:00,18.358,R,ugm-3 (Ref.eq),85.03741,R,ugm-3,75.34164,R,ugm-3,205.73052,R,ugm-3,7.000,R,ugm-3 (BAM)
09-01-2019,10:00,11.594,R,ugm-3 (Ref.eq),47.02389,R,ugm-3,51.09934,R,ugm-3,123.20163,R,ugm-3,7.000,R,ugm-3 (BAM)
09-01-2019,11:00,17.392,R,ugm-3 (Ref.eq),18.59875,R,ugm-3,30.34255,R,ugm-3,58.86023,R,ugm-3,7.000,R,ugm-3 (BAM)
09-01-2019,12:00,30.918,R,ugm-3 (Ref.eq),20.33282,R,ugm-3,30.17512,R,ugm-3,61.35167,R,ugm-3,6.000,R,ugm-3 (BAM)
09-01-2019,13:00,40.580,R,ugm-3 (Ref.eq),22.64491,R,ugm-3,33.35684,R,ugm-3,68.07855,R,ugm-3,4.000,R,ugm-3 (BAM)
09-01-2019,14:00,29.952,R,ugm-3 (Ref.eq),15.94664,R,ugm-3,29.86218,R,ugm-3,54.31336,R,ugm-3,4.000,R,ugm-3 (BAM)
09-01-2019,15:00,26.087,R,ugm-3 (Ref.eq),18.42874,R,ugm-3,34.02895,R,ugm-3,62.28596,R,ugm-3,4.000,R,ugm-3 (BAM)
09-01-2019,16:00,20.290,R,ugm-3 (Ref.eq),12.07049,R,ugm-3,29.82609,R,ugm-3,48.33390,R,ugm-3,33.000,R,ugm-3 (BAM)
09-01-2019,17:00,20.290,R,ugm-3 (Ref.eq),18.59875,R,ugm-3,37.25629,R,ugm-3,65.77397,R,ugm-3,7.000,R,ugm-3 (BAM)
09-01-2019,18:00,28.020,R,ugm-3 (Ref.eq),16.96668,R,ugm-3,40.00790,R,ugm-3,66.02312,R,ugm-3,10.000,R,ugm-3 (BAM)
09-01-2019,19:00,46.378,R,ugm-3 (Ref.eq),55.59223,R,ugm-3,83.80386,R,ugm-3,169.04409,R,ugm-3,26.000,R,ugm-3 (BAM)
09-01-2019,20:00,29.952,R,ugm-3 (Ref.eq),13.66855,R,ugm-3,40.45581,R,ugm-3,61.41396,R,ugm-3,20.000,R,ugm-3 (BAM)